Location: Unspecified
(43.3830°N, 0.0000°E)
Time: 14:57:38
(UTC+00:00)

Vanguard 2 - Pass Details

Date: 20 June 2019
Orbit: 553 x 2938 km, 32.9° (Epoch: 16 July)

Event Time Altitude Azimuth Distance (km) Brightness Sun altitude
Rises 07:17:54 0° 198° (SSW) 3,080 10.4 29.4°
Reaches altitude 10° 07:21:17 10° 171° (S) 2,451 10.3 30.0°
Maximum altitude 07:24:04 14° 141° (SE) 2,464 10.7 30.5°
Drops below altitude 10° 07:27:23 10° 114° (ESE) 3,066 11.7 31.1°
Sets 07:32:42 0° 92° (E) 4,607 12.6 32.1°
